Powrót do katalogu

TRYAD 2

AktywnyNaukaSSO
NORAD 66761·PAYLOAD·🇯🇵 Japan
Ta nazwa satelity nie została jeszcze potwierdzona przez oficjalne źródła.

Wystrzelony Nov 28, 2025 z Vandenberg Space Force Base

Loading…

Następne Przeloty (najbliższe 24 godziny)

TLE

ŚwieżeSource: Space-Track

Epoka: Sep 13, 2026, 22:33 UTC

1 66761U 25276CZ  26256.93969488  .00007728  00000-0  32575-3 0  9994
2 66761  97.4110 329.8573 0001173  62.5718 297.5638 15.23601084 43960

Śledź TRYAD 2 w czasie rzeczywistym z AllMySat

Download on the App Store